Regional Weather Roundup
Issued by NWS

Home | Current Version | Previous Version | Text Only | Print | Product List | Glossary Off
Versions: 1 2 3 4 5 6 7 8 9 10 11 12 13 14 15 16 17 18 19 20 21 22 23 24 25 26 27 28 29 30 31 32 33 34 35 36 37 38 39 40 41 42 43 44 45 46 47 48 49 50

000
ASUS43 KMKX 251211
RWRWI

WISCONSIN REGIONAL WEATHER ROUNDUP
NATIONAL WEATHER SERVICE MILWAUKEE/SULLIVAN WI
700 AM CDT MON JUL 25 2016

NOTE: "FAIR" INDICATES FEW OR NO CLOUDS BELOW 12,000 FEET WITH NO
SIGNIFICANT WEATHER AND/OR OBSTRUCTIONS TO VISIBILITY.

WIZ001-002-006>008-014>016-023>028-251300-
NORTHWEST WISCONSIN

CITY           SKY/WX    TMP DP  RH WIND       PRES   REMARKS
SUPERIOR ARPT  SUNNY     64  62  91 W3        29.99R
6HR MIN TEMP:  60; 6HR MAX TEMP:  65;

ASHLAND        SUNNY     65  61  87 SW6       29.98R
6HR MIN TEMP:  61; 6HR MAX TEMP:  67;

HAYWARD        SUNNY     62  60  93 CALM      30.01R
6HR MIN TEMP:  58; 6HR MAX TEMP:  67;

SIREN          NOT AVBL
CUMBERLAND     SUNNY     63  59  88 W6        30.03R
RICE LAKE      SUNNY     63  60  90 CALM      30.03R
6HR MIN TEMP:  60; 6HR MAX TEMP:  66;

CHETEK         SUNNY     65  62  90 NW3       30.02R
6HR MIN TEMP:  60; 6HR MAX TEMP:  69;

LADYSMITH      SUNNY     63  62  95 CALM      30.03R
6HR MIN TEMP:  60; 6HR MAX TEMP:  67;

EAU CLAIRE     SUNNY     65  62  90 SW5       30.01R
6HR MIN TEMP:  63; 6HR MAX TEMP:  66;

MENOMONIE      SUNNY     67  62  83 W5        30.03R
6HR MIN TEMP:  64; 6HR MAX TEMP:  70;

NEW RICHMOND   SUNNY     65  61  88 W3        30.04R
6HR MIN TEMP:  61; 6HR MAX TEMP:  65;

OSCEOLA        SUNNY     63  63 100 CALM      30.06R
6HR MIN TEMP:  60; 6HR MAX TEMP:  67;

$$

WIZ003>005-009-010-017-018-251300-
NORTH CENTRAL WISCONSIN

CITY           SKY/WX    TMP DP  RH WIND       PRES   REMARKS
MANITOWISH WTR SUNNY     64  63  97 NW8       29.98R
6HR MIN TEMP:  60; 6HR MAX TEMP:  65;

ARBOR VITAE    SUNNY     65  61  86 NW6       29.98S
6HR MIN TEMP:  62; 6HR MAX TEMP:  69;

WOODRUFF       SUNNY     65  61  86 NW6       29.98S
6HR MIN TEMP:  62; 6HR MAX TEMP:  69;

RHINELANDER    SUNNY     65  60  84 W7        29.99R
6HR MIN TEMP:  61; 6HR MAX TEMP:  65;

EAGLE RIVER    SUNNY     64  61  89 W7        29.96S
6HR MIN TEMP:  62; 6HR MAX TEMP:  65;

LAND O LAKES   SUNNY     65  60  83 NW5       29.97R
6HR MIN TEMP:  60; 6HR MAX TEMP:  66;

PHILLIPS       SUNNY     61  60  97 W3        30.00R
6HR MIN TEMP:  58; 6HR MAX TEMP:  64;

TOMAHAWK       SUNNY     61  59  95 CALM      30.00R
6HR MIN TEMP:  57; 6HR MAX TEMP:  62;

MEDFORD        SUNNY     62  62 100 W7        30.01R
6HR MIN TEMP:  60; 6HR MAX TEMP:  64;

MERRILL        SUNNY     63  62  97 W5        29.99R
6HR MIN TEMP:  60; 6HR MAX TEMP:  65;

$$

WIZ029-030-035-036-043>047-251300-
CENTRAL WISCONSIN

CITY           SKY/WX    TMP DP  RH WIND       PRES   REMARKS
WAUSAU         SUNNY     65  61  87 NW9       29.98R
6HR MIN TEMP:  64; 6HR MAX TEMP:  67;

MOSINEE        SUNNY     64  63  94 W7        30.00R
MARSHFIELD     SUNNY     65  61  87 W7        30.01R
6HR MIN TEMP:  63; 6HR MAX TEMP:  67;

STEVENS POINT  SUNNY     65  61  87 W5        30.00R
6HR MIN TEMP:  63; 6HR MAX TEMP:  67;

WAUPACA        SUNNY     69  65  87 W5        29.98R
6HR MIN TEMP:  67; 6HR MAX TEMP:  71;

WAUTOMA        SUNNY     68  64  87 NW7       30.00R
6HR MIN TEMP:  63; 6HR MAX TEMP:  69;

WISC RAPIDS    SUNNY     66  61  84 W5        30.02R
6HR MIN TEMP:  64; 6HR MAX TEMP:  68;

CAMP DOUGLAS   SUNNY     66  64  94 W6        30.01R
$$

WIZ011>013-019>022-031-037>040-048>050-251300-
NORTHEAST WISCONSIN

CITY           SKY/WX    TMP DP  RH WIND       PRES   REMARKS
ANTIGO         SUNNY     63  61  93 W6        29.98S
6HR MIN TEMP:  60; 6HR MAX TEMP:  64;

SHAWANO        SUNNY     68  63  83 W7        29.96R
6HR MIN TEMP:  66; 6HR MAX TEMP:  71;

OCONTO         SUNNY     67  67 100 W8        29.93R
6HR MIN TEMP:  64; 6HR MAX TEMP:  71;

STURGEON BAY   SUNNY     70  64  81 W8        29.94R
6HR MIN TEMP:  67; 6HR MAX TEMP:  73;

GREEN BAY      SUNNY     67  66  97 W8        29.95R
6HR MIN TEMP:  64; 6HR MAX TEMP:  70;

MANITOWOC      SUNNY     70  62  76 W8        29.96R
6HR MIN TEMP:  68; 6HR MAX TEMP:  75; 6HR PCP:  0.08;

APPLETON       MOSUNNY   66  64  94 W8        29.96R
CLINTONVILLE   SUNNY     66  63  88 W5        29.97R
OSHKOSH        SUNNY     69  63  81 W7        29.98R
6HR MIN TEMP:  67; 6HR MAX TEMP:  72;

$$

WIZ032>034-041-042-053>061-251300-
SOUTHWEST WISCONSIN

CITY           SKY/WX    TMP DP  RH WIND       PRES   REMARKS
LA CROSSE      SUNNY     70  65  84 CALM      30.02R
6HR MIN TEMP:  67; 6HR MAX TEMP:  72;

SPARTA         SUNNY     62  61  96 CALM      30.03R
6HR MIN TEMP:  58; 6HR MAX TEMP:  63;

VIROQUA        SUNNY     64  64 100 SW5       30.05R
6HR MIN TEMP:  62; 6HR MAX TEMP:  67;

BOSCOBEL       SUNNY     67  66  97 S3        30.04R
6HR MIN TEMP:  65; 6HR MAX TEMP:  70;

PRAIRIE DU CHI SUNNY     67  64  91 CALM      30.04S
6HR MIN TEMP:  65; 6HR MAX TEMP:  72;

PLATTEVILLE    SUNNY     66  66 100 CALM      30.04F
6HR MIN TEMP:  65; 6HR MAX TEMP:  69;

$$

WIZ056-057-062-063-064-067-068-251300-
SOUTH CENTRAL WISCONSIN

CITY           SKY/WX    TMP DP  RH WIND       PRES   REMARKS
REEDSBURG      SUNNY     65  65 100 CALM      30.02R
6HR MIN TEMP:  63; 6HR MAX TEMP:  69;

BARABOO/DELLS  SUNNY     66  64  93 CALM      30.03R
6HR MIN TEMP:  63; 6HR MAX TEMP:  69;

LONE ROCK      SUNNY     68  66  93 W3        30.03R
6HR MIN TEMP:  66; 6HR MAX TEMP:  71;

MINERAL POINT  SUNNY     68  64  88 W3        30.04S
MADISON        MOSUNNY   71  65  81 NW5       30.01R
6HR MIN TEMP:  68; 6HR MAX TEMP:  74;

MIDDLETON      SUNNY     70  67  91 W7        30.02S
6HR MIN TEMP:  66; 6HR MAX TEMP:  73;

WATERTOWN      SUNNY     69  67  95 W5        30.00S
6HR MIN TEMP:  65; 6HR MAX TEMP:  74;

MONROE         SUNNY     70  64  83 W7        30.03S
JANESVILLE     SUNNY     72  70  94 W6        30.00R
$$

WIZ051-052-058>065-066-070>072-251300-
SOUTHEAST WISCONSIN

CITY           SKY/WX    TMP DP  RH WIND       PRES   REMARKS
MILWAUKEE      SUNNY     75  64  68 NW9       29.97R
6HR MIN TEMP:  74; 6HR MAX TEMP:  81;

WAUKESHA       SUNNY     70  64  83 W6        30.00R
MILWAUKEE/TIMM SUNNY     70  61  73 W9        29.98S
RACINE         SUNNY     73  65  75 NW6       30.00R
6HR MIN TEMP:  72; 6HR MAX TEMP:  77;

BURLINGTON     SUNNY     70  67  88 NW7       29.99S
6HR MIN TEMP:  67; 6HR MAX TEMP:  73;

KENOSHA        SUNNY     72  67  84 W7        30.00R
6HR MIN TEMP:  68; 6HR MAX TEMP:  76;

FOND DU LAC    SUNNY     69  64  84 W6        29.99R
6HR MIN TEMP:  68; 6HR MAX TEMP:  74;

SHEBOYGAN      SUNNY     70  65  84 W6        29.97R
6HR MIN TEMP:  67; 6HR MAX TEMP:  75;

WEST BEND      SUNNY     70  63  78 W9        29.99R
JUNEAU         SUNNY     67  65  91 SW5       30.02R
6HR MIN TEMP:  65; 6HR MAX TEMP:  73;

$$

LSZ147-162-251300-
LAKE SUPERIOR

STATION/POSITION TIME  TEMP    WIND        PRES    WAVE
                       AIR SEA DIR/SP/G            HT/PER
                 (UTC) (F)     (DEG/KT/KT) (MB)    (FT/S)
W MID LAKE BUOY  1150   63 58  280/ 16/ 17 1012.0R   2/ 4
DEVILS ISLAND    1200   64     250/ 12/ 13 1014.2R
SAXON HARBOR     1100   65     200/  6/  8 1014.2R
$$

LMZ867-665-643>646-251300-
LAKE MICHIGAN

STATION/POSITION TIME  TEMP    WIND        PRES    WAVE
                       AIR SEA DIR/SP/G            HT/PER
                 (UTC) (F)     (DEG/KT/KT) (MB)    (FT/S)
CHAMBERS ISLAND  1100   69     230/C1F1C2F2C3F3C4F4C5F5C6F6C7F7C8M1C9M2Ca!


USA.gov is the U.S. government's official web portal to all federal, state and local government web resources and services.